Find Kosmos-717

NORAD ID: 7684 Int'l Des: 1975-016 Owner: GUKOSR Country: SU operational
LEOCIRCULAR

Live Position

Loading 3D Globe...

About Kosmos-717

Description loading...

Upcoming Passes

Passes for default location (London). Set your location on the main map for personalized predictions.

Altitude History

Loading altitude history...

Two-Line Element Set

1 07684U 75016G 26106.08928368 .00000006 00000-0 15734-3 0 9992
2 07684 73.9998 114.6552 0034777 113.6526 304.7390 12.39834086314141
Epoch: Apr 16, 2026 • Age: 17 hours

Current Status

Altitude 1539.5 km
Velocity 7.09 km/s
Sub-Earth Point -29.13°S, 26.78°W
Type other

Most Searched